Location: Lake Almanor
(40.2485°N, 121.1442°W)
Time: 16:15:14
(UTC-08:00)

STARLINK-1094 - Pass Details

Date: 30 January 2020
Orbit: 348 x 351 km, 53.0° (Epoch: 17 February)

Event Time Altitude Azimuth Distance (km) Brightness Sun altitude
Rises 19:17:46 0° 308° (NW) 2,173 7.4 -22.5°
Reaches altitude 10° 19:19:47 10° 307° (NW) 1,327 6.2 -22.9°
Enters shadow 19:21:14 26° 303° (WNW) 747 4.8 -23.2°
